EST,Max TemperatureF,Mean TemperatureF,Min TemperatureF,Max Dew PointF,MeanDew PointF,Min DewpointF,Max Humidity, Mean Humidity, Min Humidity, Max Sea Level PressureIn, Mean Sea Level PressureIn, Min Sea Level PressureIn, Max VisibilityMiles, Mean VisibilityMiles, Min VisibilityMiles, Max Wind SpeedMPH, Mean Wind SpeedMPH, Max Gust SpeedMPH,PrecipitationIn, CloudCover, Events, WindDirDegrees
2012-12-1,30,26,22,28,22,6,100,71,42,30.61,30.54,30.45,10,3,0,9,6,13,0.09,8,Fog-Rain-Snow,45
2012-12-2,50,40,30,45,39,29,100,88,76,30.48,30.25,30.04,10,5,0,20,10,26,0.04,5,Fog-Rain,230
2012-12-3,54,47,40,45,41,37,93,76,59,30.29,30.14,30.03,10,8,2,21,8,28,0.00,3,,277
2012-12-4,55,46,36,54,46,34,100,91,82,30.31,30.18,29.98,10,5,0,20,9,29,0.07,6,Fog-Rain,209
2012-12-5,55,43,30,52,37,15,93,70,47,30.13,29.95,29.85,10,10,8,26,16,37,0.02,6,Rain,276
2012-12-6,38,33,27,15,14,12,68,53,37,30.32,30.25,30.16,10,10,10,23,8,30,0.00,0,,311
2012-12-7,41,34,27,39,31,15,100,79,57,30.21,30.08,30.03,10,10,7,20,11,24,0.04,5,Rain,222
2012-12-8,44,42,40,43,40,39,100,96,92,30.02,29.93,29.85,10,2,0,14,5,18,0.32,8,Fog-Rain,203
2012-12-9,44,40,36,44,34,29,100,82,64,30.28,30.16,29.95,10,7,0,15,7,18,0.18,4,Fog-Rain,48
2012-12-10,58,48,37,55,47,36,100,92,83,30.10,29.72,29.50,10,4,0,21,11,28,0.33,7,Fog-Rain,215
2012-12-11,52,41,30,45,31,18,86,66,45,30.14,29.81,29.54,10,10,10,24,12,30,0.02,4,Rain,294
2012-12-12,36,31,26,22,19,17,69,61,52,30.43,30.33,30.15,10,10,10,22,9,29,0.00,0,,288
2012-12-13,41,35,28,22,20,19,75,60,44,30.47,30.38,30.29,10,10,10,12,6,14,0.00,0,,288
2012-12-14,44,36,28,26,22,18,75,56,36,30.27,30.16,30.07,10,10,10,21,12,26,0.00,0,,266
2012-12-15,41,35,29,27,22,16,75,57,38,30.32,30.27,30.17,10,10,10,15,6,19,0.00,1,,1
2012-12-16,30,28,25,28,24,19,100,85,69,30.29,30.15,30.02,10,4,0,14,8,22,0.14,8,Fog-Rain,64
2012-12-17,33,31,28,32,29,26,100,95,89,30.05,29.93,29.77,4,1,0,15,10,21,0.29,8,Fog-Rain-Snow,38
2012-12-18,45,39,33,44,38,32,100,95,89,29.76,29.49,29.41,10,4,0,18,10,23,0.69,8,Fog-Rain,318
2012-12-19,42,39,35,37,30,28,92,76,60,30.04,29.68,29.44,10,10,10,26,17,35,0.00,7,,309
2012-12-20,40,35,29,30,27,24,89,77,64,30.20,30.11,30.01,10,10,10,16,7,23,0.00,4,,40
2012-12-21,53,43,32,51,37,30,100,86,71,29.97,29.43,29.04,10,4,0,29,15,42,1.06,7,Fog-Rain-Snow,137
2012-12-22,33,30,26,29,22,14,89,70,51,29.64,29.38,29.22,10,8,2,33,19,46,T,6,Snow,265
2012-12-23,35,31,26,21,17,14,63,56,49,29.86,29.80,29.67,10,10,10,31,15,38,0.00,3,,262
2012-12-24,36,31,26,18,16,15,63,54,44,30.06,30.00,29.87,10,10,10,17,8,23,0.00,1,,282
2012-12-25,34,29,23,28,22,13,92,75,58,30.22,30.03,29.95,10,8,2,15,8,21,0.03,6,Snow,2
2012-12-26,31,26,21,31,19,8,100,73,46,30.30,30.13,29.85,10,7,0,23,10,32,0.29,3,Fog-Snow,47
2012-12-27,33,30,27,32,30,23,100,93,85,29.81,29.48,29.25,10,3,0,26,18,39,0.91,8,Fog-Rain-Snow,21
2012-12-28,32,27,22,22,20,17,84,76,68,30.01,29.86,29.62,10,10,9,28,13,38,0.00,3,,298
2012-12-29,30,26,22,27,23,19,92,81,69,30.01,29.67,29.39,10,4,0,18,8,26,0.57,6,Fog-Snow,23
2012-12-30,27,22,16,25,16,6,92,74,55,29.99,29.63,29.41,10,7,2,33,20,42,0.02,3,Snow,301
2012-12-31,31,23,15,20,16,6,77,69,61,30.03,29.93,29.77,10,10,10,22,11,29,0.00,4,,250